{"data":{"norad_id":69748,"epoch":"2026-09-20T00:45:12.808800Z","epoch_age_seconds":58239,"freshness":"FRESH","line1":"1 69748U 26150K   26263.03139825  .00012840  00000+0  39929-3 0  9997","line2":"2 69748  97.2826 101.9563 0001036 101.4512 258.6847 15.33451979 13662","mean_motion":15.33451979,"eccentricity":0.0001036,"inclination_deg":97.2826,"raan_deg":101.9563,"arg_perigee_deg":101.4512,"mean_anomaly_deg":258.6847,"bstar":0.00039929,"rev_number":1366,"period_min":93.905777273773,"perigee_km":464.81340684816,"apogee_km":466.2314130779,"semimajor_km":6843.659409963,"source":"CELESTRAK","updated_at":"2026-09-20T09:00:44.287779Z"}}